[[{"header":{"parameterUnit":"m.s-1","parameterCategory":1,"la1":30.2991,"la2":30.254,"lo1":-89.0895,"lo2":-89.0444,"dy":0.0017,"dx":0.0017,"nx":28,"ny":28,"refTime":"2025-11-20T03:00:00:Z","depth":0,"parameterNumber":2,"parameterNumberName":"U-component_of_WINDS"},"data":[0,0,0,0,0,0,0,0,0,0,0,0,0,0,0,0,0,0,0,0,0,0,0,0,0,0,0,0,0,0,0,0,0,0,0,0,0,0,0,0,0,0,0,0,0,0,0,0,0,0,0,0,0,0,0,0,0,0,0.1221,0.1221,0,0.1223,0.1223,0.1223,0.1189,0.1189,0.1188,0.1187,0.1187,0.1188,0.1189,0,0,0,0,0,0,0,0,0,0,0,0,0,0.1189,0.119,0.1221,0.1221,0.1221,0.1223,0.1223,0.1223,0.119,0.1189,0.1187,0.1186,0.1187,0.1188,0.1189,0,0,0,0,0,0,0,0,0,0,0,0,0,0.1198,0.119,0.1221,0.1205,0.1203,0.1223,0.1223,0.1223,0.119,0.1189,0.1187,0.1186,0.1186,0.1188,0.1189,0.1223,0,0,0.1193,0.1193,0,0,0,0,0,0,0,0,0.1197,0.1199,0.1207,0.1206,0.1204,0.1204,0.1211,0.1223,0.119,0.1195,0.1187,0.1185,0.1194,0.1194,0.1198,0.1223,0.1223,0.1193,0.1194,0.1194,0.1194,0,0,0,0,0,0,0,0.1197,0.1199,0.1222,0.1207,0.1206,0.1197,0.1197,0.1213,0.1202,0.1194,0.1192,0.1193,0.1193,0.1196,0.1197,0.1223,0.1193,0.1194,0.1195,0.1195,0.1278,0.1279,0,0,0,0,0,0,0.1199,0.1199,0.1222,0.1222,0.1198,0.1199,0.1199,0.1206,0.1202,0.12,0.1194,0.1191,0.1195,0.1196,0.1197,0.1238,0.1194,0.1195,0.1196,0.1277,0.1278,0.128,0,0,0,0,0,0,0.1198,0.1201,0.1221,0.1209,0.1211,0.1201,0.1209,0.1207,0.121,0.1201,0.1199,0.12,0.1194,0.1195,0.1217,0.1238,0.1196,0.1197,0.1275,0.1277,0.1279,0.132,0,0,0,0,0,0,0.1197,0.1201,0.1214,0.121,0.1212,0.1242,0.121,0.1208,0.1213,0.1209,0.1206,0.1204,0.1193,0.1216,0.1219,0.1239,0.1198,0.1273,0.1276,0.1278,0.1317,0.1323,0.1329,0,0,0,0,0,0.1196,0.1225,0.1215,0.1218,0.1228,0.1243,0.1244,0.1231,0.1214,0.1227,0.1222,0.1204,0.1235,0.1218,0.1221,0.1242,0.1272,0.1275,0.1278,0.1314,0.1322,0.1329,0,0,0,0,0,0,0.1231,0.1224,0.1213,0.1241,0.1243,0.1238,0.1254,0.124,0.1246,0.1243,0.1226,0.1225,0.125,0.1248,0.123,0.1275,0.125,0.1254,0.1276,0.1284,0.129,0.1291,0.1199,0,0,0,0,0,0.1242,0.1255,0.1248,0.1273,0.1275,0.1264,0.127,0.126,0.1261,0.1262,0.1258,0.1259,0.1269,0.1276,0.1284,0.1316,0.1315,0.1332,0.1338,0.1343,0.1347,0.1365,0.1372,0.1291,0.1291,0.1291,0,0,0.1265,0.1262,0.1272,0.128,0.1281,0.1295,0.1265,0.1281,0.1291,0.1264,0.1285,0.1282,0.1282,0.131,0.1321,0.1309,0.1369,0.1347,0.1351,0.1352,0.1369,0.1377,0.1383,0.1293,0.1293,0.1292,0,0,0.1314,0.1313,0.1335,0.1336,0.1337,0.133,0.1335,0.1332,0.133,0.135,0.1331,0.1342,0.1359,0.1361,0.1364,0.1414,0.1399,0.1417,0.145,0.1467,0.1474,0.1479,0.1499,0.1506,0.1421,0.1421,0.1421,0,0.1342,0.1362,0.1348,0.1365,0.137,0.1347,0.1369,0.1371,0.1374,0.1378,0.1364,0.1386,0.1384,0.1412,0.1425,0.1427,0.1434,0.1418,0.1474,0.1479,0.1484,0.1503,0.151,0.1424,0.1423,0.1423,0.1423,0,0.1398,0.1412,0.143,0.1435,0.1442,0.1462,0.145,0.1458,0.1448,0.1442,0.1464,0.1461,0.147,0.1475,0.1464,0.1502,0.1494,0.1477,0.1452,0.1495,0.1512,0.1519,0.1427,0.1426,0.1426,0.1425,0,0,0.1469,0.1467,0.1474,0.1477,0.1476,0.1487,0.1506,0.1515,0.1523,0.1526,0.1542,0.1557,0.1542,0.1546,0.1534,0.155,0.1592,0.1531,0.153,0.1544,0.1635,0.1649,0.1658,0.1581,0.1582,0.1583,0.1635,0,0.1518,0.1551,0.1539,0.1573,0.1587,0.1565,0.1581,0.1583,0.1578,0.1589,0.1583,0.1595,0.1573,0.1575,0.1589,0.1584,0.161,0.1579,0.1597,0.1597,0.1599,0.1666,0.1681,0.1731,0.1642,0.1643,0.1644,0,0.158,0.1587,0.1623,0.1622,0.1627,0.1642,0.165,0.166,0.1662,0.1657,0.1662,0.1648,0.1666,0.164,0.1665,0.1645,0.1651,0.1649,0.1651,0.1653,0.1625,0.1672,0.1746,0.1754,0.1654,0.1653,0.1652,0,0.1631,0.1649,0.1673,0.1676,0.1674,0.1686,0.1686,0.1686,0.1692,0.1699,0.1703,0.1711,0.1716,0.1722,0.1711,0.1692,0.1739,0.1711,0.1736,0.1737,0.1748,0.1748,0.1826,0.1749,0.1749,0.1749,0.1749,0,0.1688,0.1711,0.1696,0.1711,0.1737,0.1722,0.1747,0.1745,0.1745,0.1759,0.174,0.1753,0.1737,0.1749,0.1739,0.1763,0.1765,0.1762,0.176,0.1765,0.1766,0.177,0.1767,0.1751,0.1751,0.175,0.175,0,0.1749,0.174,0.1766,0.1762,0.1762,0.1781,0.1778,0.1792,0.1786,0.1804,0.1808,0.1798,0.1811,0.18,0.1812,0.1806,0.1838,0.183,0.1838,0.1837,0.1864,0.1862,0.1948,0.196,0.1874,0.1875,0.1876,0,0.1787,0.1805,0.1804,0.1813,0.1814,0.1828,0.1835,0.1821,0.1829,0.1832,0.1846,0.1858,0.1866,0.1889,0.1883,0.1892,0.1885,0.1915,0.1886,0.1892,0.1888,0.1888,0.189,0.1921,0.1922,0.1923,0.1923,0,0.1856,0.1851,0.1862,0.1872,0.1881,0.1888,0.1893,0.1901,0.1887,0.1897,0.1911,0.1918,0.1931,0.1943,0.1951,0.1951,0.1935,0.1932,0.1939,0.1945,0.195,0.195,0.1856,0.1931,0.193,0.1929,0.1929,0.1929,0.1908,0.1923,0.1925,0.1939,0.1941,0.1947,0.1961,0.1957,0.1968,0.1979,0.1969,0.1987,0.1988,0.1997,0.1999,0.2012,0.2,0.2009,0.2011,0.2014,0.2019,0.1947,0.2013,0.2013,0.2012,0.2012,0.2012,0,0.1977,0.1978,0.199,0.1999,0.201,0.1994,0.2,0.201,0.2025,0.2028,0.2038,0.2054,0.2066,0.2062,0.2072,0.2084,0.2077,0.2087,0.2087,0.2088,0.2029,0.2023,0.2093,0.2093,0.2093,0.2093,0.2093,0.2093,0.2014,0.204,0.2035,0.2062,0.2062,0.208,0.2085,0.209,0.2093,0.2112,0.2123,0.212,0.212,0.213,0.2141,0.2139,0.2145,0.2158,0.2154,0.2099,0.2091,0.2084,0.2078,0.2159,0.2159,0.2212,0.2212,0.2213]},{"header":{"parameterUnit":"m.s-1","parameterCategory":1,"la1":30.2991,"la2":30.254,"lo1":-89.0895,"lo2":-89.0444,"dy":0.0017,"dx":0.0017,"nx":28,"ny":28,"refTime":"2025-11-20T03:00:00:Z","depth":0,"parameterNumber":3,"parameterNumberName":"V-component_of_WINDS"},"data":[0,0,0,0,0,0,0,0,0,0,0,0,0,0,0,0,0,0,0,0,0,0,0,0,0,0,0,0,0,0,0,0,0,0,0,0,0,0,0,0,0,0,0,0,0,0,0,0,0,0,0,0,0,0,0,0,0,0,3.2442,3.2443,0,3.2465,3.2465,3.2466,3.2437,3.2436,3.2435,3.2434,3.246,3.2461,3.2463,0,0,0,0,0,0,0,0,0,0,0,0,0,3.2377,3.2378,3.2442,3.2443,3.2443,3.2465,3.2465,3.2466,3.2437,3.2436,3.2435,3.2433,3.2459,3.2461,3.2463,0,0,0,0,0,0,0,0,0,0,0,0,0,3.2403,3.2379,3.2442,3.2431,3.2431,3.2465,3.2465,3.2466,3.2437,3.2436,3.2434,3.2433,3.2458,3.2461,3.2463,3.251,0,0,3.2471,3.2472,0,0,0,0,0,0,0,0,3.2402,3.2406,3.2433,3.2432,3.2431,3.2446,3.2452,3.2481,3.2438,3.2435,3.2434,3.2432,3.2457,3.2459,3.2467,3.2512,3.2513,3.2471,3.2473,3.2474,3.2474,0,0,0,0,0,0,0,3.24,3.2404,3.2451,3.2433,3.2432,3.2426,3.2428,3.2457,3.2454,3.2435,3.2433,3.2436,3.2456,3.2465,3.2467,3.2513,3.2471,3.2473,3.2475,3.2476,3.26,3.2601,0,0,0,0,0,0,3.2399,3.2403,3.2451,3.2452,3.2412,3.2429,3.2431,3.2443,3.2454,3.2454,3.2437,3.2435,3.2461,3.2465,3.2468,3.2526,3.2474,3.2476,3.2477,3.2598,3.26,3.2602,0,0,0,0,0,0,3.2398,3.2404,3.245,3.2427,3.2432,3.2431,3.2446,3.2445,3.2453,3.2456,3.2455,3.2446,3.246,3.2465,3.25,3.2526,3.2477,3.2479,3.2596,3.2598,3.2601,3.264,0,0,0,0,0,0,3.2396,3.2403,3.242,3.2428,3.2434,3.2481,3.2447,3.2446,3.2457,3.2454,3.2464,3.2464,3.2459,3.2497,3.2503,3.2529,3.2481,3.2593,3.2597,3.26,3.2636,3.2644,3.265,0,0,0,0,0,3.2394,3.2431,3.2421,3.2427,3.2455,3.2482,3.2486,3.2478,3.2459,3.2477,3.2479,3.2464,3.2522,3.2501,3.2507,3.2534,3.2592,3.2596,3.26,3.2633,3.2642,3.265,0,0,0,0,0,0,3.2427,3.2431,3.2421,3.2461,3.2472,3.2477,3.25,3.2488,3.2504,3.25,3.2491,3.2494,3.2532,3.2536,3.2513,3.2581,3.2554,3.2559,3.2577,3.2586,3.2592,3.2591,3.2483,0,0,0,0,0,3.2439,3.246,3.2463,3.2498,3.2504,3.2501,3.2512,3.2506,3.2516,3.2521,3.2525,3.2537,3.2558,3.2572,3.2591,3.2637,3.264,3.2658,3.2665,3.2671,3.2676,3.2703,3.2712,3.2615,3.2615,3.2615,0,0,3.2464,3.2469,3.2483,3.2505,3.2512,3.2535,3.2505,3.253,3.2547,3.2525,3.2559,3.2563,3.2575,3.2617,3.2635,3.2621,3.2703,3.2676,3.268,3.2683,3.2708,3.2717,3.2725,3.2618,3.2617,3.2617,0,0,3.2522,3.2527,3.2557,3.2565,3.2576,3.2574,3.2582,3.259,3.2591,3.2625,3.2609,3.263,3.2666,3.2676,3.2686,3.2748,3.2736,3.2755,3.279,3.2816,3.2824,3.2831,3.2855,3.2864,3.276,3.276,3.276,0,3.2552,3.2585,3.2575,3.2602,3.2613,3.2592,3.2624,3.2633,3.265,3.2658,3.2643,3.2688,3.2695,3.2739,3.2755,3.2763,3.2772,3.2754,3.2823,3.283,3.2836,3.2859,3.2868,3.2762,3.2762,3.2762,3.2761,0,3.2622,3.2646,3.2669,3.2686,3.2699,3.2728,3.2724,3.2739,3.2731,3.2731,3.2767,3.2775,3.2796,3.2806,3.2799,3.285,3.2841,3.2825,3.2797,3.2848,3.287,3.2878,3.2766,3.2765,3.2764,3.2763,0,0,3.2702,3.2713,3.2722,3.273,3.2741,3.276,3.2789,3.2809,3.2823,3.2835,3.286,3.2891,3.2877,3.2888,3.2881,3.2904,3.2956,3.2885,3.2885,3.2899,3.3015,3.3029,3.3039,3.2947,3.2948,3.295,3.3015,0,3.2761,3.281,3.2803,3.2851,3.2873,3.2855,3.288,3.2891,3.2892,3.2912,3.2913,3.2936,3.2913,3.292,3.2942,3.2945,3.2979,3.294,3.2972,3.2973,3.2971,3.305,3.3064,3.3125,3.3023,3.3024,3.3025,0,3.2837,3.2852,3.2903,3.2911,3.292,3.2943,3.2962,3.2981,3.2993,3.2992,3.3005,3.2995,3.3025,3.2996,3.3039,3.3013,3.3026,3.3029,3.3031,3.3036,3.3003,3.3058,3.3144,3.3154,3.3038,3.3037,3.3036,0,3.2893,3.2926,3.296,3.2968,3.2978,3.2995,3.3,3.301,3.3024,3.304,3.3049,3.3069,3.308,3.3097,3.3093,3.3072,3.3138,3.3108,3.314,3.314,3.3156,3.3155,3.3247,3.3161,3.3161,3.3161,3.3161,0,3.2961,3.2993,3.2986,3.3007,3.3043,3.3034,3.307,3.3074,3.3083,3.3106,3.3091,3.3113,3.3106,3.3128,3.3126,3.3163,3.3168,3.3169,3.3169,3.3172,3.3172,3.3181,3.3178,3.3163,3.3163,3.3162,3.3162,0,3.3029,3.3026,3.3063,3.307,3.3072,3.3099,3.3105,3.3126,3.3126,3.3155,3.3162,3.3162,3.3188,3.3185,3.3214,3.3212,3.3259,3.3252,3.3255,3.3254,3.3287,3.3285,3.339,3.3404,3.3307,3.3308,3.3308,0,3.3074,3.3098,3.3108,3.3122,3.3128,3.3151,3.3164,3.3156,3.3171,3.3187,3.3207,3.323,3.3249,3.3291,3.3295,3.3317,3.3312,3.3348,3.3316,3.3319,3.3316,3.3315,3.3318,3.3355,3.3356,3.3356,3.3357,0,3.3154,3.3151,3.317,3.3189,3.3206,3.322,3.3234,3.3246,3.324,3.3258,3.3283,3.3298,3.3327,3.3352,3.3374,3.338,3.3369,3.3367,3.3376,3.338,3.3382,3.3383,3.3274,3.3365,3.3364,3.3364,3.3363,3.3363,3.3213,3.3235,3.3245,3.3267,3.3276,3.3289,3.331,3.3312,3.3333,3.3356,3.335,3.338,3.3392,3.342,3.3429,3.3453,3.3441,3.3453,3.3456,3.346,3.3465,3.3376,3.3457,3.3456,3.3456,3.3456,3.3456,0,3.3294,3.33,3.3321,3.334,3.3358,3.3343,3.3358,3.3374,3.34,3.3412,3.3431,3.3462,3.3486,3.3491,3.3515,3.3533,3.3529,3.354,3.354,3.3542,3.3474,3.3465,3.3544,3.3544,3.3543,3.3543,3.3543,3.3543,3.3339,3.3375,3.3373,3.3414,3.3419,3.3448,3.3457,3.347,3.348,3.3514,3.3534,3.3537,3.3547,3.3571,3.3594,3.3595,3.3605,3.3619,3.3619,3.3555,3.3546,3.3538,3.353,3.3621,3.3621,3.3685,3.3686,3.3686]}]]